Regional Weather Roundup
Issued by NWS Charleston, SC

Current Version | Previous Version | Graphics & Text | Print | Product List | Glossary On
Versions: 1 2 3 4 5 6 7 8 9 10 11 12 13 14 15 16 17 18 19 20 21 22 23 24 25 26 27 28 29 30 31 32 33 34 35 36 37 38 39 40 41 42 43 44 45 46 47 48 49 50
000 ASUS42 KCHS 171912 RWRCHS REGIONAL WEATHER ROUNDUP NATIONAL WEATHER SERVICE CHARLESTON SC 300 PM EDT THU AUG 17 2017 NOTE: "FAIR" INDICATES FEW OR NO CLOUDS BELOW 12,000 FEET WITH NO SIGNIFICANT WEATHER AND/OR OBSTRUCTIONS TO VISIBILITY. NOT ALL STATIONS ARE QUALITY CONTROLLED. USE DATA WITH CAUTION... ESPECIALLY DEWPOINT OBSERVATIONS. SCZ027-030-031-034>040-042>050-172000- ...SOUTHEAST SOUTH CAROLINA... CITY SKY/WX TMP DP RH WIND PRES REMARKS N CHARLESTON PTSUNNY 86 73 65 SW7 29.97F THUNDER HX 93 WATERFRONT PRK N/A N/A N/A N/A SW8 29.85F JOHNS ISLAND MOCLDY 82 79 89 CALM 29.99F HX 93 PINOPOLIS N/A 84 73 70 W15G23 29.92F HX 91 MONCKS CORNER TSTM 79 73 83 CALM 29.98F SUMMERVILLE MOCLDY 86 77 74 N14G20 30.00F THUNDER HX 97 BEAUFORT MCAS MOSUNNY 95 76 53 W10 29.99F HX 108 BEAUFORT ARPT FAIR 93 77 59 SW7 29.98F HX 107 HILTON HEAD IS MOSUNNY 91 81 70 S7 30.01F THUNDER HX 110 WALTERBORO PTCLDY 93 73 52 W5 29.99F HX 102 ALLENDALE NOT AVBL ...SOUTHERN MIDLANDS AND PEE DEE... CITY SKY/WX TMP DP RH WIND PRES REMARKS GEORGETOWN FAIR 81 79 94 S5 30.00F KINGSTREE FAIR 82 73 74 SW13G20 29.98F THUNDER ORANGEBURG MOSUNNY 94 75 54 VRB5 29.98F HX 105 BARNWELL FAIR 97 77 52 W7 29.99F HX 112 AIKEN FAIR 90 73 58 W7 30.03F HX 98 MANNING FAIR 90 73 58 CALM 29.98F HX 98 COLUMBIA CLOUDY 94 75 54 S3 29.96F HX 105 SUMTER MOSUNNY 94 74 52 SW14 29.95F HX 104 FLORENCE MOSUNNY 88 73 61 VRB3 29.98F HX 95 MYRTLE BEACH MOSUNNY 90 81 74 SW15 30.00S HX 108 N MYRTLE BEACH LGT RAIN 85 80 85 SE9 29.98F HX 99 $$ GAZ063-065-086>088-099>101-113>116-118-119-134>141-150-172000- ...SOUTHEAST GEORGIA... CITY SKY/WX TMP DP RH WIND PRES REMARKS SAVANNAH ARPT PTSUNNY 93 75 55 SW7 30.00F HX 104 HUNTER AAF CLOUDY 93 76 58 S7 29.98F HX 105 FORT STEWART MOSUNNY 91 75 59 N6 29.98F HX 102 STATESBORO SUNNY 94 69 43 W7 30.00F HX 99 SYLVANIA CLEAR 93 77 59 NW6 30.01F HX 107 CLAXTON FAIR 95 77 56 W3G10 30.00F HX 110 ...CSRA...CENTRAL AND FAR SOUTHEAST GEORGIA... CITY SKY/WX TMP DP RH WIND PRES REMARKS THOMSON MOSUNNY 92 75 57 NW10 30.05F HX 102 AUGUSTA-BUSH MOSUNNY 97 76 50 SW10 29.98F HX 110 AUGUSTA-DANIEL MOSUNNY 95 70 44 VRB6 30.01F HX 101 SWAINSBORO FAIR 95 73 49 NW10 30.02F HX 105 VIDALIA SUNNY 95 73 49 SW7 30.02F HX 105 EASTMAN FAIR 94 64 37 SW7 30.06F HX 95 HAZLEHURST FAIR 96 57 26 NW3 30.01F HX 95 ALMA SUNNY 96 73 47 NW12 30.02F HX 105 WAYCROSS MOSUNNY 90 72 55 W8 30.02F HX 97 JESUP FAIR 97 72 44 NW5 30.01F HX 105 BAXLEY FAIR 91 72 52 NW6 30.01F HX 98 BRUNSWICK PTSUNNY 90 72 55 E12 30.02F HX 96 SAINT SIMONS HVY RAIN 83 77 82 SE9 30.02F VSB 1 HX 92 $$ SCZ027-028-034-036>038-045-046-048>050-GAZ119-141-172000- ...LAKE AND SUPPLEMENTAL COASTAL OBSERVATIONS... STATION/POSITION TIME TEMP WIND PRES WAVE SWELL AIR SEA DIR/SP/G HT/PER HT/PER/DIR (UTC) (F) (DEG/KT/KT) (MB) (FT/S) (FT/S/D) WINYAH BAY 1745 86 220/ 19 1016.0 LAKE MURRAY 1820 90 230/ 10/ 14 1014.6F ACE BASIN NERRS 1745 95 190/ 1 1016.0 FORT PULASKI 1848 86 86 200/ 9/ 12 1016.4F SAPELO ISLAND 1800 86 160/ 3 1017.0 $$ ANZ835-935-AMZ111-154-330-350-352-354-370-450-454-472-172000- ...C-MAN AND BUOY OBSERVATIONS... STATION/POSITION TIME TEMP WIND PRES WAVE SWELL AIR SEA DIR/SP/G HT/PER HT/PER/DIR (UTC) (F) (DEG/KT/KT) (MB) (FT/S) (FT/S/D) BUOY 41004 1850 85 86 210/ 8/ 10 1015.6F 2/ 4 2/220/ 4 BUOY 41008 1850 87 88 230/ 10/ 16 1016.3F 1/ 7 2/ 80/ 7 FOLLY BEACH CMAN 1900 90 240/ 5/ 6 1016.3F CAPERS NEARSHORE 1808 87 87 210/ 8/ 12 1015.9F FRIPP NEARSHORE 1808 88 230/ 10/ 12 1015.9F STATION/POSITION TIME TEMP WIND PRES WAVE SWELL AIR SEA DIR/SP/G HT/PER HT/PER/DIR (UTC) (F) (DEG/KT/KT) (MB) (FT/S) (FT/S/D) 5E ST. MARYS GA 1830 87 N/A 1/ 7 FRYING PAN BUOY 1850 85 85 190/ 8/ 10 1016.1F 2/ 8 2/110/ 8 BUOY 41025 1850 82 87 160/ 2/ 6 1016.6F 2/ 7 2/ 70/ 7 CAPE LOOKOUT NC 1800 82 130/ 7/ 8 1016.8F BUOY 41002 1850 84 85 270/ 10/ 10 1016.7F 2/ 5 2/250/ 5 BUOY 41010 1850 86 86 200/ 6/ 8 1017.5F 2/ 8 2/110/ 8 ST AUGUSTINE FL 1900 80 81 210/ 11/ 14 1018.2F $$

USA.gov is the U.S. government's official web portal to all federal, state and local government web resources and services.